Theta_e
351 351 350 351 351 350 351 350 349 350 350 349 348 347 347 346 346 346 345 345 344 343 344 343 341 340 337 334 331 328 329 329 329 332 336 336 333 333 332 332 330 328 328 328 328 326 326 328 330 329 331 335 339 340 341 340 342 344 345 345 346 348 347
350 351 351 351 351 351 352 352 350 350 349 350 349 348 348 347 346 346 345 345 345 345 345 345 344 342 339 335 332 329 328 328 327 329 334 336 334 332 330 330 329 327 327 327 326 326 327 327 329 330 330 332 335 338 339 340 341 343 345 343 344 348 347
350 351 351 351 352 352 352 352 350 350 349 350 350 348 349 348 347 347 346 346 346 346 346 346 345 344 342 339 336 332 329 328 327 326 329 332 332 331 329 329 328 327 326 327 326 326 326 327 328 329 330 331 332 335 337 339 340 342 344 342 342 344 345
350 351 350 350 352 352 353 353 351 350 350 350 350 349 349 348 347 348 347 347 347 346 347 347 346 346 344 343 340 336 331 328 327 326 327 328 328 327 328 328 327 327 326 326 326 326 326 327 328 329 330 331 332 335 335 336 339 341 342 342 341 341 342
350 350 350 349 351 351 352 353 353 351 351 350 350 349 349 349 348 348 348 348 347 347 347 347 347 347 346 346 344 341 335 330 328 327 327 327 327 326 326 326 326 326 326 325 325 326 326 327 328 329 329 330 331 334 335 336 337 340 341 341 341 340 339
350 350 350 349 350 352 352 352 352 352 351 351 350 350 349 349 349 348 348 349 348 348 348 348 348 348 347 347 346 345 340 335 331 329 328 326 327 328 326 326 326 325 325 325 325 326 326 327 328 329 329 329 329 331 334 335 336 338 339 339 340 340 338
350 349 349 350 350 352 353 352 352 352 352 351 351 350 350 349 349 349 349 349 349 349 349 349 349 349 349 349 349 347 345 341 336 333 330 328 327 327 327 326 326 325 325 325 326 326 326 326 328 329 329 329 328 329 331 333 335 338 338 338 338 339 339
350 350 350 349 350 351 352 352 352 352 352 352 351 351 351 350 350 350 350 351 350 350 350 350 350 351 351 351 350 349 348 345 341 338 335 332 329 328 327 326 326 326 326 325 326 326 326 326 328 329 330 329 329 329 329 331 334 336 338 339 338 339 339
349 350 349 349 349 350 351 352 352 353 353 352 352 352 351 351 352 351 351 351 351 351 351 351 352 351 352 352 352 351 350 349 346 342 339 337 335 331 329 328 327 326 326 326 326 326 327 327 328 329 330 329 329 329 329 330 331 334 337 339 339 338 338
349 349 349 350 349 350 351 351 352 353 353 353 352 352 353 352 352 352 353 352 353 353 353 353 353 353 353 353 353 353 352 351 349 347 344 342 339 336 333 331 330 328 327 327 327 327 327 328 329 329 330 331 330 330 331 331 331 332 335 336 338 338 338
348 348 348 349 349 350 351 351 352 352 353 354 354 353 353 353 353 353 353 354 354 353 354 354 354 354 354 354 354 354 354 353 352 350 347 346 343 340 337 335 333 332 331 330 329 330 330 330 330 331 331 332 331 330 331 332 332 332 332 334 335 337 337
348 348 348 349 350 350 351 352 352 352 352 353 353 353 353 353 354 354 354 354 355 355 355 355 355 355 355 355 355 355 355 355 354 352 351 348 346 343 341 339 337 335 334 333 332 332 333 333 332 333 333 332 331 331 330 331 332 333 332 333 334 335 336
349 350 348 350 349 350 351 352 352 352 352 352 352 352 353 354 354 354 355 355 356 356 356 356 356 357 357 357 357 357 356 356 355 354 353 350 348 346 344 342 340 338 338 337 336 335 334 335 335 335 335 333 331 331 332 332 333 333 333 333 334 334 335
352 353 352 351 351 351 351 353 353 354 353 352 353 353 353 353 354 354 355 356 356 357 358 358 358 358 358 358 358 358 358 357 357 356 354 352 350 348 346 345 343 341 340 339 338 337 337 337 337 337 336 335 332 332 332 334 334 334 334 334 334 335 335
354 355 355 354 354 355 353 353 353 353 354 354 354 353 354 353 354 355 355 356 357 357 357 358 358 359 359 359 359 359 358 358 358 357 356 355 353 351 349 347 346 344 342 341 340 339 338 338 339 339 338 337 335 334 334 335 335 335 334 334 334 334 335
348 349 351 351 350 352 354 356 355 353 354 354 354 354 354 354 354 355 355 356 357 358 358 359 359 359 359 360 359 359 359 359 359 358 358 357 355 354 352 349 348 347 345 343 341 340 340 340 341 341 340 339 338 338 337 337 336 335 334 333 333 333 334
341 342 345 346 346 347 350 353 356 356 356 354 355 355 354 355 354 354 355 356 356 358 359 359 360 360 360 360 360 360 360 360 360 359 359 358 357 356 355 352 350 349 347 345 343 342 342 342 343 343 341 340 339 339 340 338 336 334 334 333 332 332 333
336 337 340 342 344 345 345 346 347 353 357 357 356 356 355 355 356 354 356 356 355 356 358 358 359 360 360 361 361 361 361 361 361 361 360 360 359 358 356 354 353 351 349 347 346 345 344 344 345 345 343 342 341 340 340 339 336 334 334 333 332 332 332
334 335 337 340 342 343 345 344 337 342 353 356 355 357 356 356 357 357 356 357 356 356 356 357 359 359 360 361 361 361 362 362 362 362 362 361 360 359 358 356 354 352 350 349 347 347 346 346 346 345 345 343 342 342 342 340 338 336 335 334 334 333 333
332 334 336 338 340 341 345 345 336 333 346 352 353 355 357 356 357 358 357 357 358 358 357 357 358 360 361 361 362 362 362 363 363 363 363 362 362 361 359 357 355 353 351 350 349 349 348 348 348 346 346 345 343 343 342 340 338 337 337 336 335 334 335
331 333 334 336 338 340 342 344 340 333 336 344 346 348 353 356 357 357 357 358 357 357 358 359 359 360 362 362 363 363 363 364 364 364 364 364 363 362 360 358 356 354 352 351 350 350 350 349 349 348 346 346 344 344 343 340 337 338 338 338 337 336 337
330 332 333 335 337 338 339 342 343 340 338 340 340 340 345 352 355 357 356 356 358 358 358 359 359 360 362 364 364 365 364 365 365 365 365 365 364 364 362 360 357 355 354 352 351 351 351 351 350 350 348 347 347 345 344 340 338 338 339 339 339 340 340
329 330 332 334 335 337 338 340 342 343 343 344 342 341 344 349 352 355 357 356 358 360 360 360 361 360 361 361 364 365 365 365 365 365 365 365 365 365 363 362 359 357 355 354 352 352 352 352 352 351 350 350 349 347 345 342 339 338 338 340 343 344 344
329 330 331 333 333 334 337 339 340 342 344 344 344 344 347 347 347 352 356 356 357 359 360 360 361 360 360 360 362 365 366 365 365 365 365 366 365 365 364 363 361 359 356 354 353 353 353 353 353 353 352 352 351 350 348 345 342 340 340 343 346 347 347
328 329 330 332 333 333 334 337 339 340 341 342 342 344 346 345 346 350 352 353 355 358 360 359 359 360 359 359 361 364 365 366 366 366 365 366 365 366 365 364 363 360 358 356 354 353 354 354 354 354 354 354 354 352 352 349 347 344 343 345 348 351 350
327 329 330 332 333 334 334 334 336 338 340 341 340 339 342 345 347 350 350 350 352 356 358 359 359 360 360 360 361 362 364 366 366 366 366 366 365 365 365 365 364 362 359 357 356 354 355 354 355 355 355 355 356 355 354 353 351 348 346 346 349 351 353
326 328 330 331 333 334 334 334 335 337 339 340 341 341 344 347 348 350 350 348 348 352 356 357 359 359 360 361 361 362 364 365 366 366 365 365 365 365 366 365 364 363 361 358 356 356 355 355 356 356 356 356 357 356 355 355 354 351 348 347 348 351 353
326 327 329 331 332 333 334 335 336 338 339 339 340 342 345 348 350 351 352 352 351 351 352 356 358 359 360 360 360 362 363 364 366 366 366 365 366 366 365 365 364 363 362 360 358 356 355 356 356 357 357 357 357 357 357 356 355 354 352 349 348 350 352
325 327 329 331 332 333 334 335 337 338 339 339 341 343 345 347 349 352 354 355 355 352 352 354 358 359 359 360 360 360 361 362 365 365 366 366 365 365 365 365 364 363 362 361 359 358 357 357 357 357 357 357 357 357 357 357 356 355 354 352 350 350 351
323 326 328 330 331 332 333 335 336 337 338 339 340 342 344 345 347 349 353 355 356 356 355 356 357 359 359 359 359 359 359 359 362 364 365 366 365 365 365 365 364 364 362 362 360 359 358 357 357 357 357 357 357 357 357 357 357 356 354 353 352 351 351
321 324 327 329 330 331 332 333 335 336 337 338 339 340 342 344 344 346 349 352 354 356 358 358 358 359 359 359 359 359 359 358 359 362 365 365 365 365 365 365 364 364 363 362 361 360 359 359 358 357 358 358 358 358 358 357 357 357 355 353 353 352 352
321 322 325 328 329 330 331 332 333 335 336 337 337 339 341 343 344 344 345 348 351 354 356 358 359 359 359 358 359 358 357 358 358 361 364 366 366 365 365 365 364 365 364 363 362 361 360 359 359 358 358 358 358 358 358 358 357 356 355 354 354 353 352
321 320 322 326 328 329 330 331 331 332 334 335 336 338 339 341 343 344 344 345 347 351 354 357 359 360 359 358 358 358 357 357 358 361 364 366 366 366 366 365 365 365 364 363 362 362 361 360 360 359 358 358 357 358 358 358 357 356 355 353 352 350 350
322 320 321 324 327 328 328 328 329 330 332 333 335 336 339 340 342 344 345 344 344 348 352 357 360 363 362 360 359 360 361 359 358 362 365 365 366 366 366 365 366 365 365 364 364 363 362 361 361 360 359 358 358 358 358 358 357 356 353 351 347 345 345
322 321 320 322 325 326 326 325 326 329 331 333 334 336 338 339 342 344 345 344 344 346 350 354 359 363 365 365 362 362 363 361 360 362 365 365 366 366 366 366 365 365 365 364 364 363 363 363 362 361 360 360 359 357 357 357 355 351 347 346 343 342 342
322 321 321 321 323 324 324 324 325 329 331 333 334 336 337 339 341 343 344 345 346 347 349 352 357 362 365 367 367 366 364 363 362 362 364 366 366 366 366 366 366 365 366 365 365 364 364 363 363 362 361 360 360 359 358 356 354 350 350 350 348 345 342
321 321 321 321 321 323 324 323 324 327 331 332 333 335 336 338 340 342 344 345 347 348 349 351 354 359 363 366 367 368 366 364 363 364 365 366 366 366 365 365 366 367 367 366 366 365 365 365 364 364 363 362 361 360 359 357 356 355 354 353 351 348 345
321 321 321 320 320 322 323 322 322 325 329 331 332 333 335 336 339 341 343 345 347 348 349 350 352 356 360 362 365 367 367 365 365 365 366 366 366 366 365 365 365 367 367 367 367 367 366 366 365 364 364 364 363 362 361 359 358 357 356 355 354 352 350
Wind_Speed
37 39 42 44 46 48 49 48 50 53 53 53 53 53 53 53 53 52 52 51 50 49 47 47 46 45 44 44 43 44 43 41 39 38 36 35 33 32 30 28 27 25 23 22 19 17 14 13 13 13 15 16 16 15 15 15 15 14 14 14 13 12 11
37 39 41 43 45 48 49 49 51 53 54 55 54 53 54 54 54 54 53 53 51 50 49 48 47 46 46 44 44 44 44 44 43 41 39 38 36 34 32 30 29 27 25 23 20 18 17 16 15 14 14 17 17 17 16 16 16 17 16 15 13 13 13
38 39 41 44 46 49 50 50 51 53 55 56 55 55 55 55 55 55 54 53 53 51 50 48 47 47 46 45 45 45 45 45 44 44 43 42 40 37 35 33 31 29 27 25 23 21 20 19 18 16 16 16 18 19 18 17 17 17 18 16 15 14 14
41 42 44 44 45 47 50 50 50 53 55 56 56 56 56 56 56 55 54 53 53 53 51 50 48 47 47 46 46 45 46 46 45 45 44 44 43 40 38 36 35 33 31 29 26 24 22 21 20 19 18 18 18 20 20 19 18 18 18 18 16 15 14
43 44 43 43 44 45 48 50 50 51 53 55 56 56 56 55 55 55 54 53 52 52 51 50 49 48 47 47 46 46 46 47 46 46 44 44 44 43 41 39 37 36 34 32 30 27 25 24 23 22 21 20 19 20 21 20 20 20 19 19 19 18 16
43 43 44 46 46 46 48 51 51 51 52 53 55 55 55 54 54 54 54 53 52 51 51 50 49 49 48 48 47 46 46 47 48 47 46 44 44 43 42 40 38 38 36 35 33 31 28 26 25 24 23 23 22 22 22 21 22 22 21 21 21 20 19
45 44 46 46 46 46 48 50 53 53 52 52 53 53 53 53 54 54 54 53 53 52 52 52 51 49 48 48 47 47 47 47 48 48 48 47 46 45 43 41 40 39 37 36 35 33 32 29 28 27 26 25 24 24 23 23 22 23 23 23 22 22 21
47 46 48 47 46 46 47 47 50 51 51 50 50 51 52 52 53 53 53 53 53 52 52 53 52 51 49 48 47 47 46 46 47 48 49 49 48 47 45 44 42 40 39 38 37 35 34 32 30 29 28 28 27 26 25 25 24 24 24 24 23 23 22
44 46 49 48 45 45 46 47 48 48 49 48 48 50 51 51 52 53 53 53 53 53 53 52 51 50 49 48 48 47 46 46 47 48 49 49 50 49 47 46 44 42 41 39 38 37 35 34 32 31 30 30 29 28 27 27 26 26 25 25 24 23 23
41 44 45 45 45 44 45 46 46 46 48 48 48 49 51 52 52 52 52 52 53 53 53 52 51 50 50 49 48 47 46 46 46 48 49 50 50 50 49 47 46 44 43 41 39 38 37 35 34 32 32 33 32 30 29 29 29 28 28 27 25 24 23
40 43 42 42 44 44 44 45 46 47 49 50 49 49 50 51 51 51 52 52 52 52 52 51 51 50 50 49 48 47 47 45 45 47 49 50 50 51 49 48 48 46 45 43 42 40 38 36 35 34 34 34 33 32 30 30 30 30 30 29 28 26 24
36 38 40 42 43 43 44 45 47 49 49 50 50 50 51 51 51 51 51 51 51 51 50 51 50 50 50 49 49 49 48 46 45 45 47 48 49 50 50 49 48 47 46 45 43 42 40 38 36 35 34 34 33 33 32 30 30 30 30 30 29 28 27
16 17 21 30 35 38 41 43 46 49 51 51 51 51 51 51 51 51 51 50 50 49 49 49 49 49 49 49 49 49 48 47 46 44 44 46 47 48 49 49 49 48 47 46 44 43 41 40 38 36 35 34 34 33 32 31 31 30 30 31 30 29 28
25 24 16 10 10 16 26 34 39 43 47 50 51 52 52 52 51 51 50 49 48 47 47 47 48 48 49 49 49 49 49 47 46 44 43 44 45 47 48 48 48 48 47 46 45 44 42 41 39 37 36 35 35 34 33 32 32 31 30 31 31 31 29
35 34 30 28 25 16 7 13 22 28 35 39 42 46 48 49 51 50 49 47 46 45 45 45 46 47 47 49 49 48 47 46 46 45 44 44 45 46 47 48 48 47 47 46 45 44 43 41 39 39 38 37 36 35 35 34 34 32 31 30 31 31 30
33 33 32 32 31 29 24 15 8 12 20 27 32 36 40 42 44 45 46 45 43 43 44 44 44 46 46 47 48 47 46 45 45 45 45 45 45 46 47 48 48 47 47 47 46 44 43 42 41 40 39 39 38 38 37 36 35 33 31 30 31 31 31
30 30 31 30 30 29 28 24 19 14 9 13 19 26 32 37 39 41 42 43 42 40 39 40 41 43 45 46 46 45 45 45 45 45 45 45 45 46 46 47 48 48 48 47 46 45 43 42 42 41 40 40 39 39 39 38 35 33 32 31 31 31 31
28 28 29 29 28 27 25 23 21 19 15 9 8 14 20 27 34 39 40 41 43 42 40 40 41 42 43 44 44 44 44 44 44 44 45 45 45 45 46 46 47 48 48 48 47 45 44 43 42 42 41 40 40 40 40 38 36 33 32 32 31 31 31
26 27 28 27 27 25 24 23 19 16 16 14 8 7 13 16 21 30 38 40 42 46 46 45 43 42 42 43 43 44 44 43 43 43 44 44 44 44 45 46 48 48 48 48 47 46 45 44 42 42 41 42 42 41 40 38 36 34 34 33 32 31 31
24 26 28 27 26 24 21 20 17 12 12 15 13 7 9 14 14 18 29 38 40 43 46 46 45 43 42 42 43 43 43 43 42 42 42 42 43 43 45 46 47 48 48 48 47 47 46 45 43 42 42 42 42 42 41 39 36 34 34 33 32 32 32
22 25 26 26 25 23 20 18 16 9 7 10 11 10 4 8 14 11 17 30 38 40 42 44 45 44 42 42 43 43 43 43 42 41 41 40 41 43 44 46 47 47 48 48 48 48 47 46 44 43 42 42 42 42 41 39 36 35 34 33 32 32 32
22 24 24 23 24 23 21 19 16 9 6 9 8 7 10 3 8 10 11 18 29 37 40 42 45 44 42 41 41 42 43 43 42 42 41 40 41 42 44 45 47 47 48 48 48 48 47 46 45 44 42 41 42 43 42 39 37 35 34 32 30 30 32
24 24 24 23 22 22 20 19 17 11 7 8 6 7 11 8 1 9 9 12 18 26 35 38 42 43 42 40 40 41 43 44 43 43 42 41 41 43 43 44 45 47 47 48 48 48 48 47 46 45 43 42 42 42 42 40 38 36 35 32 30 29 30
25 25 25 25 24 23 21 19 17 15 10 7 6 7 10 7 3 7 13 14 17 17 24 30 34 37 38 39 39 40 42 44 44 44 43 43 43 43 43 43 44 45 46 48 49 48 48 47 46 45 44 43 42 42 42 41 39 37 36 34 32 30 29
26 25 24 24 23 23 23 21 18 15 13 10 7 8 10 8 7 7 13 19 20 16 17 23 27 28 31 35 39 40 42 44 46 45 45 45 44 44 43 43 43 44 45 47 48 48 48 47 46 46 46 45 43 42 41 41 40 39 37 36 34 32 30
25 25 24 23 23 22 22 22 20 18 16 15 11 9 11 11 11 11 13 17 20 19 19 21 21 20 21 26 33 39 43 45 47 48 46 45 45 44 44 43 43 43 44 46 47 47 47 47 47 47 46 46 45 44 42 41 41 40 39 37 36 35 33
22 22 23 23 22 22 22 21 22 21 19 18 16 12 11 13 14 13 13 14 16 19 20 21 21 20 18 18 24 34 42 46 48 49 47 45 45 44 44 44 44 44 44 45 46 47 47 47 47 46 46 46 46 45 44 43 41 40 39 39 38 37 35
21 21 21 22 22 22 23 21 21 21 20 20 19 16 13 13 14 13 13 13 14 16 19 21 22 22 21 20 21 26 35 43 48 49 48 46 45 46 46 45 44 44 44 44 45 46 47 47 46 46 46 46 46 47 46 44 43 41 40 39 39 39 38
21 21 22 22 23 23 23 22 20 20 21 20 19 17 16 15 14 13 14 14 15 16 19 21 22 23 23 24 24 25 29 36 42 47 48 47 46 47 47 46 45 45 44 44 45 45 46 47 46 46 46 46 47 47 47 45 44 43 41 40 39 40 40
22 22 22 21 22 23 23 22 21 20 20 20 19 18 17 17 17 16 16 17 17 18 19 21 23 24 25 26 27 27 28 31 36 42 47 48 47 47 47 47 46 45 45 45 45 45 45 46 47 47 47 47 47 47 47 46 45 44 43 42 41 41 41
23 22 21 20 21 22 22 23 22 22 22 21 20 19 18 18 19 20 19 20 20 20 21 22 23 24 25 26 28 29 30 31 33 38 44 48 48 47 47 47 46 46 45 44 44 45 45 46 47 48 48 48 47 47 47 46 45 45 44 43 42 41 41
23 21 20 20 20 21 22 22 23 24 24 24 22 21 19 19 19 21 22 23 23 23 23 23 24 25 25 26 27 29 30 31 33 38 43 47 48 47 47 47 46 46 45 45 45 45 46 47 48 48 48 48 48 47 47 46 46 46 45 44 43 42 41
23 21 19 18 19 20 21 22 23 25 25 25 25 23 22 21 20 21 24 25 25 25 25 25 25 25 26 26 26 26 28 31 34 39 43 46 47 46 46 46 46 46 46 46 46 46 47 47 47 48 49 50 49 47 46 46 47 47 46 45 44 41 40
21 21 18 17 16 18 19 20 23 24 25 25 25 24 23 22 21 22 24 26 27 27 26 25 24 24 25 26 26 25 27 32 35 39 43 46 46 46 45 45 45 46 47 47 46 46 46 47 47 48 49 50 49 48 46 47 48 48 47 45 42 39 37
19 20 18 17 16 16 17 19 20 21 22 23 23 23 23 22 21 21 23 25 27 27 27 25 24 24 24 25 26 25 28 33 37 40 43 45 46 45 45 45 44 45 46 46 45 45 45 45 46 47 48 48 49 48 48 50 50 48 45 43 40 38 35
17 19 18 17 16 15 15 17 19 19 19 21 22 21 21 20 19 19 20 22 25 26 26 26 25 24 23 23 24 25 28 34 38 41 43 45 46 45 44 43 44 44 45 45 44 44 44 44 44 44 45 47 48 49 50 51 50 47 45 44 42 39 36
16 18 19 17 16 15 14 16 17 17 18 20 22 20 20 19 18 18 18 19 21 22 24 24 25 25 24 22 20 22 27 33 37 41 43 45 45 45 44 43 44 44 44 44 43 42 43 42 41 41 42 45 46 47 48 49 49 47 46 45 42 39 37
14 16 18 17 16 15 15 15 16 16 16 20 22 20 19 17 17 16 16 16 17 19 21 22 23 25 26 23 19 19 24 31 35 39 43 45 45 45 45 45 45 44 44 44 43 42 42 41 39 39 41 44 44 45 46 47 47 47 47 45 43 41 39
Wind_Direction
196 197 197 197 196 194 195 196 197 198 198 198 199 200 200 201 202 204 205 208 210 211 212 213 215 215 215 214 212 212 211 211 211 211 211 213 213 214 214 213 213 216 216 215 218 221 222 223 222 219 213 209 211 213 213 211 209 209 209 206 202 200 205
197 198 197 198 197 196 196 196 197 198 198 198 199 200 201 202 203 205 206 208 210 212 213 214 216 216 217 216 214 213 212 212 213 213 213 215 217 218 220 220 219 222 224 224 225 228 231 233 232 231 223 214 213 214 216 215 210 210 215 217 212 206 205
197 198 198 198 199 198 197 196 197 197 198 198 199 201 202 203 205 206 208 209 209 212 214 215 217 218 219 219 217 215 214 213 214 214 215 217 220 222 223 224 226 227 229 230 231 232 234 235 236 234 231 223 217 216 218 216 212 211 215 219 220 213 207
197 199 199 200 200 200 199 198 197 197 198 199 200 202 204 205 207 208 209 210 210 211 213 215 217 219 220 220 220 219 216 215 215 215 217 219 222 225 225 226 228 230 231 233 234 235 235 236 236 234 234 230 221 218 219 218 214 214 216 219 222 221 214
198 199 198 200 201 201 201 200 199 199 199 200 201 203 206 206 206 207 209 211 212 213 215 217 218 219 221 222 222 222 220 218 217 216 218 220 222 225 227 227 228 229 232 234 235 236 236 235 235 233 232 231 226 219 219 220 219 217 218 219 221 224 221
198 198 198 200 199 199 201 201 202 202 201 202 203 204 205 205 206 207 208 210 213 215 216 216 218 220 221 223 224 224 224 222 220 219 219 220 222 224 227 228 228 229 231 233 235 236 236 236 235 234 232 231 228 223 219 220 220 220 221 222 222 225 225
197 197 198 200 199 198 201 201 202 203 203 203 203 203 204 205 206 208 208 210 213 214 214 215 218 220 222 223 224 225 226 226 224 222 221 222 223 225 227 229 229 230 231 233 235 236 237 237 236 235 234 232 230 226 222 219 219 221 223 224 223 224 226
196 196 198 200 200 200 201 200 201 202 203 204 203 203 204 205 206 208 209 210 212 213 214 215 217 219 221 223 224 225 227 227 227 226 225 224 225 226 228 230 231 232 233 234 235 236 237 238 237 236 235 233 232 230 225 221 219 220 222 225 225 224 225
195 196 198 198 199 202 203 202 201 202 202 203 204 203 204 205 206 208 210 211 212 213 215 216 218 219 221 223 225 226 226 228 229 229 228 227 226 227 229 231 232 234 234 235 236 237 238 239 239 238 236 234 233 232 229 225 221 220 222 225 227 226 225
194 196 198 197 198 200 203 202 201 202 202 202 203 204 205 206 207 208 210 211 213 214 215 216 218 219 221 223 225 226 226 227 229 229 229 229 229 229 229 230 232 234 235 236 237 238 239 240 240 239 237 234 232 232 232 229 225 223 223 225 228 229 228
192 195 195 194 197 199 200 201 201 202 203 203 204 205 205 206 207 208 210 212 213 214 215 216 217 219 220 223 225 226 226 227 229 229 230 230 231 231 231 231 232 233 235 236 237 239 239 240 239 239 237 234 232 232 233 232 229 226 224 225 227 230 230
192 193 194 193 195 198 200 201 202 202 203 204 205 206 207 207 208 209 211 213 214 214 214 215 217 218 220 222 224 225 226 227 229 230 231 232 232 232 232 232 232 233 234 236 237 238 239 239 239 238 237 235 233 233 234 234 233 230 228 227 227 229 231
172 175 190 194 195 199 201 201 203 204 205 206 206 208 209 208 209 209 210 212 213 214 215 215 216 217 219 221 223 225 227 228 229 231 232 233 234 233 233 232 233 233 234 235 236 237 238 238 238 238 238 236 235 234 235 236 236 235 231 229 229 229 230
71 71 79 110 156 193 203 204 206 206 206 207 207 209 210 210 210 210 210 211 212 214 215 215 216 217 218 220 223 225 228 230 231 232 234 235 234 234 234 233 233 233 234 235 235 236 237 238 238 238 238 237 236 236 236 237 238 238 235 232 230 230 230
57 58 61 62 64 74 125 195 210 212 210 209 208 209 210 211 211 210 211 211 211 213 214 215 216 217 218 220 223 226 229 231 232 234 235 236 235 235 235 234 233 234 234 234 235 235 236 237 238 239 238 236 235 235 236 237 238 238 237 235 232 230 230
47 46 46 49 55 62 69 85 136 197 210 211 211 212 211 211 212 212 212 211 211 212 214 216 216 218 219 221 224 227 229 231 233 235 235 236 236 236 236 234 233 233 233 234 235 235 236 236 237 238 238 237 235 235 235 236 238 238 238 236 234 232 231
35 37 37 40 45 52 60 70 81 97 139 188 205 213 215 215 214 213 212 212 211 211 213 216 218 220 221 223 226 228 230 232 234 235 236 237 237 238 237 235 234 233 233 234 234 235 235 235 235 236 237 237 236 235 235 236 237 237 237 237 236 235 235
21 27 30 33 36 40 46 52 61 72 83 107 165 198 213 219 220 217 214 212 211 211 213 217 221 223 225 226 228 229 231 234 235 236 237 238 238 238 237 236 234 233 232 233 234 234 234 235 235 236 236 236 236 236 237 237 238 238 238 237 236 236 236
14 19 23 27 31 32 34 39 46 58 67 68 81 156 188 206 221 223 220 217 215 213 214 216 220 223 226 227 229 231 233 235 237 238 238 239 239 239 238 236 234 233 232 232 233 234 234 235 235 235 236 236 236 237 237 239 240 240 240 239 238 237 237
14 17 19 22 27 29 29 32 34 47 71 65 54 71 167 189 206 225 225 222 221 218 217 218 219 222 224 227 229 231 233 235 237 239 240 240 240 239 237 236 234 233 232 231 232 233 234 235 235 235 235 235 236 237 238 240 241 241 242 242 240 239 239
15 18 20 18 20 23 24 26 25 31 56 53 40 30 32 188 195 220 237 229 225 224 222 221 221 222 223 225 228 231 233 235 237 239 241 241 240 239 238 236 235 234 232 231 231 232 233 235 236 235 235 235 235 237 238 240 241 242 243 243 243 242 242
14 17 20 17 15 15 14 15 19 21 4 3 3 341 340 344 184 209 256 250 233 226 223 223 223 224 225 226 227 230 233 236 237 239 241 242 241 240 239 237 235 233 232 231 230 232 233 235 236 236 235 235 235 236 238 240 241 242 243 243 243 244 244
13 14 14 11 8 11 11 9 12 13 352 347 346 302 310 335 174 198 233 275 263 232 222 224 224 224 227 230 231 232 233 236 238 239 240 241 241 241 240 239 237 234 233 231 230 231 232 233 235 236 236 235 234 235 238 240 241 242 242 243 242 242 244
9 10 10 7 360 359 4 6 6 7 0 351 337 306 301 311 298 213 217 255 279 251 225 228 229 229 231 233 234 234 234 237 239 240 240 240 242 243 242 240 238 236 234 232 230 231 232 232 234 235 236 236 235 235 238 241 242 243 243 243 242 241 242
3 5 8 8 1 352 352 355 357 357 356 348 326 308 303 294 287 260 233 245 265 259 234 233 237 240 241 240 239 238 237 238 239 240 241 242 243 243 243 241 240 238 236 233 232 231 232 232 233 234 235 236 236 237 238 241 243 244 245 245 244 242 241
356 358 1 4 3 354 345 343 345 347 349 348 336 315 303 294 285 276 256 249 253 250 242 241 246 254 257 252 247 244 240 239 238 239 241 243 243 243 243 242 241 238 237 234 232 231 231 232 233 233 234 235 236 237 239 240 242 244 246 246 245 243 242
349 349 354 359 359 354 345 339 339 342 345 345 340 328 310 296 287 280 273 263 255 250 248 251 256 262 264 261 255 248 243 240 238 239 240 242 244 243 242 241 240 238 237 235 232 231 230 231 232 233 234 235 236 237 239 240 241 243 245 246 246 244 242
347 346 350 354 355 353 348 342 338 339 340 340 337 332 322 305 293 287 282 278 272 264 257 255 259 262 261 257 256 252 246 241 238 237 238 240 240 240 240 239 238 237 237 236 233 231 230 230 231 233 234 235 236 237 238 239 240 242 244 245 245 245 243
349 349 349 351 352 351 347 343 340 338 339 339 334 328 322 313 302 291 284 282 278 270 262 258 258 260 259 254 252 252 250 245 241 238 237 237 236 237 237 237 236 235 235 235 233 231 230 230 230 231 233 235 235 236 237 238 240 241 243 244 245 245 244
348 349 349 351 352 348 344 341 338 336 335 337 335 327 320 314 306 296 287 284 279 273 269 265 262 261 259 255 251 249 249 249 245 241 238 235 234 234 234 234 235 234 233 233 232 231 230 230 229 230 232 234 234 235 236 237 238 240 243 244 245 245 245
345 347 348 349 349 346 342 338 337 333 329 330 331 328 321 315 309 303 295 288 283 280 277 274 270 267 263 259 254 250 248 249 247 243 239 235 232 231 232 232 232 232 231 231 231 230 230 230 229 229 231 232 233 235 236 236 237 238 242 244 245 245 246
341 345 347 346 347 347 343 338 335 332 329 329 329 328 326 321 312 304 299 293 289 287 284 282 280 276 271 266 260 253 249 248 246 242 238 234 231 231 232 232 231 231 230 230 230 230 231 231 229 229 230 232 233 234 235 236 237 238 241 243 244 245 245
336 342 345 345 347 347 343 340 338 336 334 333 332 329 327 323 315 306 300 296 292 289 286 287 287 283 277 272 266 258 252 248 245 239 234 230 229 229 228 228 230 231 230 230 230 230 230 230 230 229 230 231 232 233 234 236 237 239 241 242 244 245 245
333 337 341 343 344 345 345 346 345 342 340 338 335 331 328 322 317 310 303 298 293 290 287 286 287 286 281 273 268 263 256 249 243 236 231 228 227 227 226 225 226 228 231 233 233 231 230 230 230 230 231 232 232 232 233 235 237 239 241 243 244 245 243
330 332 335 339 341 345 352 356 353 349 347 343 338 334 331 324 316 311 307 302 297 293 290 287 285 286 283 274 267 263 258 250 241 234 230 228 227 227 227 228 229 231 233 236 238 238 237 235 233 233 233 233 233 233 232 234 237 241 243 245 245 245 243
325 328 331 334 336 340 353 3 2 358 356 351 343 337 334 329 319 312 308 304 300 297 294 290 286 286 286 279 270 262 255 248 240 233 229 228 226 224 225 228 231 233 234 236 238 240 240 240 240 240 238 236 235 235 236 237 240 243 244 245 246 248 248
316 324 326 330 333 338 350 4 6 4 5 3 355 345 338 333 326 318 311 305 301 298 296 293 288 284 285 284 277 265 252 244 238 233 228 226 225 225 227 228 230 231 232 233 236 238 239 241 243 244 243 241 239 239 239 241 242 244 245 246 248 250 250
311 320 321 322 328 336 348 2 7 7 9 10 9 3 353 342 335 327 316 306 299 294 293 294 291 284 282 283 281 267 249 239 234 230 227 225 224 224 227 229 229 229 229 230 232 235 237 240 241 242 242 242 242 242 243 242 242 243 245 247 249 250 252